KG7ADK Weather Reports


Display with metric or nautical units.
time (UTC)temp
F
wind
direction
speed
MPH
gust
MPH
rain 1hr
in
rain 24hr
in
rain mn
in
humidity
%
barometer
mb
20260506001803 72 272 1.0 5.0 0.00 0.00 0.00 44 1013.3
20260506001114 72 278 1.0 5.0 0.00 0.00 0.00 45 1013.1
20260506000213 71 98 0.0 3.0 0.00 0.00 0.00 51 1013.2
20260505235403 70 0 0.0 0.0 0.00 0.00 0.00 49 1013.1
20260505234503 70 0 0.0 0.0 0.00 0.00 0.00 52 1013.0
20260505233603 71 0 0.0 0.0 0.00 0.00 0.00 50 1013.1
20260505232703 72 0 0.0 0.0 0.00 0.00 0.00 46 1013.1
20260505231803 73 0 0.0 0.0 0.00 0.00 0.00 41 1013.1
20260505230903 74 0 0.0 0.0 0.00 0.00 0.00 36 1013.1
20260505230004 73 166 0.0 1.0 0.00 0.00 0.00 37 1013.1
20260505225403 74 162 0.0 1.0 0.00 0.00 0.00 35 1013.1
20260505224503 74 31 0.0 2.0 0.00 0.00 0.00 36 1013.2
20260505223603 74 327 1.0 2.0 0.00 0.00 0.00 35 1013.1
20260505222703 75 12 1.0 3.0 0.00 0.00 0.00 34 1013.1
20260505221803 75 349 1.0 3.0 0.00 0.00 0.00 34 1013.1
20260505220903 76 296 2.0 4.0 0.00 0.00 0.00 35 1013.1
20260505220003 76 99 2.0 4.0 0.00 0.00 0.00 34 1013.1
20260505215403 75 100 1.0 4.0 0.00 0.00 0.00 34 1013.2
20260505214503 75 326 1.0 4.0 0.00 0.00 0.00 33 1013.1
20260505213603 76 62 1.0 5.0 0.00 0.00 0.00 32 1013.1
20260505212703 76 97 1.0 3.0 0.00 0.00 0.00 36 1013.1
20260505211803 77 93 1.0 4.0 0.00 0.00 0.00 32 1013.1
20260505210903 79 96 1.0 4.0 0.00 0.00 0.00 30 1013.1
20260505210003 79 89 2.0 6.0 0.00 0.00 0.00 31 1013.1
20260505205403 78 328 1.0 4.0 0.00 0.00 0.00 32 1013.2
20260505204713 77 282 1.0 4.0 0.00 0.00 0.00 33 1013.2
20260505203603 78 21 2.0 7.0 0.00 0.00 0.00 35 1013.3
20260505202703 79 358 1.0 4.0 0.00 0.00 0.00 34 1013.3
20260505201803 78 17 1.0 6.0 0.00 0.00 0.00 36 1013.3
20260505200903 77 19 2.0 6.0 0.00 0.00 0.00 36 1013.5
20260505200003 77 77 1.0 4.0 0.00 0.00 0.00 34 1013.5
20260505195613 77 112 1.0 4.0 0.00 0.00 0.00 37 1013.5
20260505194503 76 79 2.0 4.0 0.00 0.00 0.00 38 1013.6
20260505193603 75 90 1.0 4.0 0.00 0.00 0.00 35 1013.6
20260505192703 75 81 2.0 6.0 0.00 0.00 0.00 39 1013.7
20260505191803 75 92 1.0 3.0 0.00 0.00 0.00 41 1013.6
20260505191114 74 91 2.0 4.0 0.00 0.00 0.00 37 1013.7
20260505190004 75 78 2.0 5.0 0.00 0.00 0.00 40 1013.8
20260505185403 74 56 1.0 4.0 0.00 0.00 0.00 41 1013.8
20260505184503 74 304 1.0 5.0 0.00 0.00 0.00 38 1013.8
20260505183603 74 94 1.0 3.0 0.00 0.00 0.00 37 1013.9
20260505182703 72 106 1.0 3.0 0.00 0.00 0.00 38 1013.9
20260505181803 72 132 1.0 3.0 0.00 0.00 0.00 38 1013.8
20260505180903 71 76 1.0 5.0 0.00 0.00 0.00 38 1013.9
20260505180003 70 125 1.0 4.0 0.00 0.00 0.00 39 1013.9
20260505175403 68 83 1.0 4.0 0.00 0.00 0.00 42 1013.8
20260505174503 68 189 1.0 2.0 0.00 0.00 0.00 41 1013.8
20260505173813 67 140 1.0 2.0 0.00 0.00 0.00 44 1013.8
20260505172703 66 353 1.0 2.0 0.00 0.00 0.00 47 1013.9
20260505171803 66 58 1.0 3.0 0.00 0.00 0.00 48 1013.9
20260505170903 65 334 0.0 2.0 0.00 0.00 0.00 50 1013.9
20260505170004 65 14 1.0 3.0 0.00 0.00 0.00 49 1013.9
20260505165403 65 50 1.0 3.0 0.00 0.00 0.00 46 1013.9
20260505164503 64 141 0.0 2.0 0.00 0.00 0.00 47 1013.9
20260505163603 64 43 0.0 2.0 0.00 0.00 0.00 44 1014.0
20260505162703 63 8 0.0 3.0 0.00 0.00 0.00 49 1014.0
20260505161803 62 65 0.0 2.0 0.00 0.00 0.00 49 1014.0
20260505160903 62 98 1.0 2.0 0.00 0.00 0.00 46 1014.0
20260505152704 57 0 0.0 0.0 0.00 0.00 0.00 60 1014.0
20260505151803 56 0 0.0 0.0 0.00 0.00 0.00 57 1013.9
20260505150903 56 0 0.0 0.0 0.00 0.00 0.00 61 1013.8
20260505124503 37 0 0.0 0.0 0.00 0.00 0.00 78 1012.6
20260505123603 37 0 0.0 0.0 0.00 0.00 0.00 79 1012.4
20260505122703 37 0 0.0 0.0 0.00 0.00 0.00 78 1012.4
20260505121803 37 0 0.0 0.0 0.00 0.00 0.00 76 1012.5
20260505120903 38 0 0.0 0.0 0.00 0.00 0.00 76 1012.5
20260505120004 37 0 0.0 0.0 0.00 0.00 0.00 76 1012.4
20260505115403 37 0 0.0 0.0 0.00 0.00 0.00 76 1012.4
20260505114503 37 0 0.0 0.0 0.00 0.00 0.00 76 1012.4
20260505113813 37 0 0.0 0.0 0.00 0.00 0.00 76 1012.2
20260505112914 37 0 0.0 0.0 0.00 0.00 0.00 76 1012.2
20260505111803 38 0 0.0 0.0 0.00 0.00 0.00 75 1012.2
20260505111113 38 0 0.0 0.0 0.00 0.00 0.00 75 1012.2
20260505110214 38 0 0.0 0.0 0.00 0.00 0.00 75 1012.1
20260505101803 40 244 0.0 1.0 0.00 0.00 0.00 74 1012.2
20260505101115 40 0 0.0 0.0 0.00 0.00 0.00 74 1012.1
20260505100003 40 0 0.0 0.0 0.00 0.00 0.00 74 1012.1
20260505095403 40 0 0.0 0.0 0.00 0.00 0.00 73 1012.0
20260505094713 41 0 0.0 0.0 0.00 0.00 0.00 73 1012.0
20260505093603 41 244 0.0 1.0 0.00 0.00 0.00 73 1012.0
20260505092703 41 244 0.0 1.0 0.00 0.00 0.00 73 1012.0
20260505091803 42 0 0.0 0.0 0.00 0.00 0.00 71 1012.0
20260505090903 43 240 0.0 1.0 0.00 0.00 0.00 72 1012.0
20260505090004 43 212 0.0 1.0 0.00 0.00 0.00 70 1012.1
20260505085403 44 0 0.0 0.0 0.00 0.00 0.00 69 1012.1
20260505084503 44 212 0.0 1.0 0.00 0.00 0.00 69 1012.1
20260505083603 45 212 0.0 1.0 0.00 0.00 0.00 67 1012.2
20260505082703 45 0 0.0 0.0 0.00 0.00 0.00 66 1012.1
20260505081803 46 0 0.0 0.0 0.00 0.00 0.00 65 1011.9
20260505080903 47 0 0.0 0.0 0.00 0.00 0.00 64 1011.8
20260505080003 48 212 0.0 1.0 0.00 0.00 0.00 62 1011.9
20260505075612 48 0 0.0 0.0 0.00 0.00 0.00 62 1011.8
20260505074714 49 216 0.0 1.0 0.00 0.00 0.00 61 1011.8
20260505073603 50 229 0.0 1.0 0.00 0.00 0.00 57 1011.7
20260505072704 52 229 0.0 1.0 0.00 0.00 0.00 54 1011.6
20260505072014 53 229 0.0 1.0 0.00 0.00 0.00 53 1011.7
20260505070903 54 0 0.0 0.0 0.00 0.00 0.00 52 1011.7
20260505070215 55 0 0.0 0.0 0.00 0.00 0.00 51 1011.5
20260505065403 56 302 0.0 1.0 0.00 0.00 0.00 50 1011.5
20260505064503 58 302 0.0 1.0 0.00 0.00 0.00 49 1011.5
20260505063813 58 302 0.0 2.0 0.00 0.00 0.00 49 1011.4
20260505062703 59 297 1.0 3.0 0.00 0.00 0.00 48 1011.4
20260505061803 59 292 1.0 3.0 0.00 0.00 0.00 47 1011.5
20260505060903 59 301 1.0 3.0 0.00 0.00 0.00 46 1011.4
20260505060214 60 292 1.0 4.0 0.00 0.00 0.00 46 1011.4
20260505055404 60 288 1.0 3.0 0.00 0.00 0.00 46 1011.4
20260505054504 60 289 1.0 3.0 0.00 0.00 0.00 46 1011.5
20260505053603 60 277 1.0 4.0 0.00 0.00 0.00 47 1011.5
20260505052703 60 271 1.0 3.0 0.00 0.00 0.00 47 1011.6
20260505051803 60 277 1.0 4.0 0.00 0.00 0.00 48 1011.6
20260505050904 61 277 1.0 3.0 0.00 0.00 0.00 47 1011.7
20260505041114 62 288 2.0 5.0 0.00 0.00 0.00 49 1011.0
20260505040004 62 285 1.0 4.0 0.00 0.00 0.00 49 1010.9
20260505035404 62 281 1.0 3.0 0.00 0.00 0.00 48 1010.8
20260505034714 63 281 1.0 5.0 0.00 0.00 0.00 46 1010.8
20260505033603 63 283 2.0 4.0 0.00 0.00 0.00 45 1010.7
20260505032913 63 289 2.0 4.0 0.00 0.00 0.00 46 1010.5
20260505031803 64 274 1.0 5.0 0.00 0.00 0.00 46 1010.4
20260505030903 64 280 1.0 5.0 0.00 0.00 0.00 45 1010.4
20260505030213 65 281 1.0 5.0 0.00 0.00 0.00 44 1010.3
20260505025613 66 277 2.0 5.0 0.00 0.00 0.00 43 1010.4
20260505024714 66 281 2.0 4.0 0.00 0.00 0.00 42 1010.3
20260505023604 67 284 2.0 6.0 0.00 0.00 0.00 39 1010.2
20260505022913 68 290 2.0 6.0 0.00 0.00 0.00 38 1010.2
20260505021803 68 283 1.0 4.0 0.00 0.00 0.00 37 1010.2
20260505021114 69 290 1.0 5.0 0.00 0.00 0.00 36 1010.1
20260505020004 69 291 2.0 6.0 0.00 0.00 0.00 35 1010.2
20260505015615 70 288 2.0 6.0 0.00 0.00 0.00 34 1010.0
20260505014503 70 298 2.0 6.0 0.00 0.00 0.00 33 1010.1
20260505013603 71 291 2.0 5.0 0.00 0.00 0.00 33 1010.2
20260505012913 71 287 2.0 6.0 0.00 0.00 0.00 32 1010.1
20260505011803 72 294 2.0 6.0 0.00 0.00 0.00 32 1010.2
20260505010903 72 283 2.0 6.0 0.00 0.00 0.00 33 1010.1
20260505010004 73 278 2.0 6.0 0.00 0.00 0.00 30 1010.2
20260505005403 74 273 2.0 5.0 0.00 0.00 0.00 31 1010.2
20260505004713 74 283 2.0 5.0 0.00 0.00 0.00 30 1010.2
20260505003813 75 276 2.0 6.0 0.00 0.00 0.00 33 1010.2
20260505002703 75 286 2.0 7.0 0.00 0.00 0.00 31 1010.0